Flag for Germany Weather past 2 weeks in Güstrow, Mecklenburg-Western Pomerania, Germany

Now
45 °F

Partly sunny.


Feels Like: 39 °F
Forecast: 36 / 48 °F
Wind: 12 mph from West

Location: Laage

Current Time: Mar 6, 2015 at 6:05:46 PM

Latest Report: Mar 6, 2015 at 5:20 PM


Visibility: N/A

Pressure: 30.45 "Hg

Humidity: 87%

Dew point: 41 °F

Location of GüstrowLocation

Historic Weather in Güstrow — Graph

°F

Güstrow temperature yesterday

Maximum temperature yesterday: 43 °F (at 11:20 AM)
Minimum temperature yesterday: 34 °F (at 4:20 AM)
Average temperature yesterday: 39 °F

Past Weeks' High & Low Weather Summary

 TemperatureHumidityPressure
High48 °F (Feb 26, 1:20 PM)100% (Feb 21, 12:20 AM)30.51 "Hg (Feb 21, 12:20 AM)
Low28 °F (Feb 25, 11:20 PM)43% (Feb 26, 3:20 PM)29.24 "Hg (Feb 21, 2:20 PM)
Average38 °F83%29.83 "Hg
* Reported Feb 19 4:20 PM — Mar 6 4:20 PM, Güstrow, Weather by CustomWeather, © 2015

Note: Actual official high and low records may vary slightly from our data, if they occured in-between our weather recording intervals... More about our weather records

Advertising

Güstrow weather history for previous 24 hours

 ConditionsComfort  
Time TempWeatherWind HumidityBarometerVisibility
4:20 PM
Fri, Mar 6
46 °FDrizzle. Broken clouds.12 mph82%30.45 "Hg4 mi
3:20 PM45 °FPartly sunny.10 mph93%30.42 "Hg4 mi
2:57 PM45 °FDrizzle. Partly sunny.10 mph93%30.45 "Hg3 mi
2:20 PM46 °FDrizzle. Fog.15 mph82%30.45 "Hg2 mi
1:20 PM48 °FPartly sunny.12 mph66%30.45 "HgN/A
12:20 PM46 °FPartly sunny.13 mph71%30.45 "HgN/A
11:20 AM45 °FPartly sunny.12 mph76%30.45 "HgN/A
10:20 AM43 °FPartly sunny.10 mph81%30.45 "Hg5 mi
9:20 AM41 °FPartly sunny.8 mph87%30.45 "Hg5 mi
8:20 AM39 °FPartly sunny.9 mph93%30.45 "Hg5 mi
7:20 AM39 °FBroken clouds.7 mph93%30.45 "Hg5 mi
6:20 AM39 °FPassing clouds.9 mph87%30.45 "HgN/A
5:20 AM39 °FPassing clouds.8 mph87%30.45 "HgN/A
4:20 AM39 °FPassing clouds.7 mph87%30.45 "HgN/A
3:20 AM41 °FPassing clouds.8 mph81%30.48 "HgN/A
2:20 AM41 °FPassing clouds.9 mph81%30.48 "HgN/A
1:20 AM39 °FPassing clouds.6 mph87%30.51 "HgN/A
12:20 AM37 °FPassing clouds.6 mph87%30.51 "HgN/A
11:20 PM
Thu, Mar 5
37 °FPassing clouds.6 mph87%30.51 "HgN/A
10:20 PM37 °FPassing clouds.3 mph87%30.51 "HgN/A
9:20 PM39 °FPassing clouds.6 mph87%30.51 "HgN/A
8:20 PM39 °FPassing clouds.6 mph87%30.51 "HgN/A
7:20 PM39 °FPassing clouds.8 mph87%30.51 "HgN/A
6:20 PM39 °FPassing clouds.9 mph87%30.51 "HgN/A
Weather by CustomWeather, © 2015

See weather overviewHow to use our weather pages